Location: *
(41.3833°S, 177.8333°W)
Time: 01:59:39
(UTC+00:00)

Lacrosse 5 - Pass Details

Date: 01 April 2020
Orbit: 715 x 724 km, 57.0° (Epoch: 27 May)

Event Time Altitude Azimuth Distance (km) Brightness Sun altitude
Exits shadow 17:04:55 18° 279° (W) 1,738 3.2 -12.6°
Maximum altitude 17:06:18 20° 300° (WNW) 1,640 3.2 -12.4°
Drops below altitude 10° 17:09:55 10° 346° (NNW) 2,201 4.2 -11.7°
Sets 17:12:50 0° 3° (N) 3,110 5.2 -11.2°
